Meteo Giornale » Osservazioni meteo Germania » Noervenich

ore: 20:20 - Osservazioni Meteo Noervenich
Lat. 50° 50' N Lon. 6° 40' E Alt. 118 metri s.l.m.

molto_nuvoloso Europe/Berlin

17 °C

Molto Nuvoloso

Temp. 24 Ore

13 °C

21 °C

Nord

5.5 Km/h

Dew point 13 °C

Umidità 77 %

Visibilità  10 Km

Il sole sorge alle ore 07:10

Il sole tramonta alle ore 19:44

Data e Ora Cielo e Fenomeni T °C DP °C Um. % Pres. hPa Vis. km Vento km/h
Oggi h: 20:20 molto_nuvoloso Molto Nuvoloso 17 13 77 1015 10 N 5.5
Oggi h: 19:20 molto_nuvoloso Molto Nuvoloso 18 14 77 1015 10 SO 7.4
Oggi h: 18:20 molto_nuvoloso Molto Nuvoloso 20 13 64 1015 10 N 5.5
Oggi h: 17:20 molto_nuvoloso Molto Nuvoloso 21 12 56 1015 10 N 3.7
Oggi h: 16:20 molto_nuvoloso Molto Nuvoloso 20 13 64 1015 10 N 5.5
Oggi h: 15:20 molto_nuvoloso Molto Nuvoloso 20 13 64 1016 10 N 5.5
Oggi h: 14:20 molto_nuvoloso Molto Nuvoloso 20 13 64 1016 10 N 5.5
Oggi h: 13:20 molto_nuvoloso Molto Nuvoloso 19 13 68 1016 10 N 5.5
Oggi h: 12:20 molto_nuvoloso Molto Nuvoloso 18 14 77 1016 10 N 3.7
Oggi h: 12:00 molto_nuvoloso Molto Nuvoloso 18 14 77 1016 10 S 7.4
Oggi h: 11:20 molto_nuvoloso Molto Nuvoloso 17 14 82 1016 10 N 5.5
Oggi h: 10:20 molto_nuvoloso Molto Nuvoloso 16 13 82 1017 10 N 5.5
Oggi h: 09:49 molto_nuvoloso Molto Nuvoloso 15 12 82 1016 10 N 1.8
Oggi h: 09:20 molto_nuvoloso Molto Nuvoloso 15 13 87 1016 10 N 1.8
Oggi h: 08:20 molto_nuvoloso Molto Nuvoloso 14 12 87 1017 9 N 3.7
Oggi h: 07:20 molto_nuvoloso Molto Nuvoloso 13 12 93 1016 10 N 1.8
Oggi h: 06:20 molto_nuvoloso Molto Nuvoloso 13 11 87 1016 10 N 3.7
Oggi h: 05:20 molto_nuvoloso Molto Nuvoloso 13 12 93 1017 10 N 3.7
Oggi h: 04:20 molto_nuvoloso Molto Nuvoloso 13 12 93 1017 10 N 1.8
Oggi h: 03:20 nuvoloso Nuvoloso 13 11 87 1017 10 O/SO 7.4
Oggi h: 01:20 nuvoloso Nuvoloso 14 13 93 1018 10 SO 9.3
Oggi h: 00:20 nuvoloso Nuvoloso 14 13 93 1018 10 N 5.5
Ieri h: 23:20 nuvoloso Nuvoloso 14 12 87 1018 10 N 3.7
Ieri h: 22:20 nuvoloso Nuvoloso 15 13 87 1018 10 N 5.5
Ieri h: 21:20 molto_nuvoloso Molto Nuvoloso 17 13 77 1017 10 N 5.5